Regional Weather Roundup
Issued by NWS

Home | Current Version | Previous Version | Text Only | Print | Product List | Glossary Off
Versions: 1 2 3 4 5 6 7 8 9 10 11 12 13 14 15 16 17 18 19 20 21 22 23 24 25 26 27 28 29 30 31 32 33 34 35 36 37 38 39 40 41 42 43 44 45 46 47 48 49 50

000
ASUS45 KCYS 280810
RWRWY

WYOMING REGIONAL WEATHER ROUNDUP
NATIONAL WEATHER SERVICE CHEYENNE WY
200 AM MDT THU AUG 28 2014

NOTE:  "FAIR" INDICATES FEW OR NO CLOUDS BELOW 12,000 FEET
WITH NO SIGNIFICANT WEATHER AND/OR OBSTRUCTIONS TO VISIBILITY.

WYZ001-280900-
YELLOWSTONE NATIONAL PARK

CITY           SKY/WX    TMP DP  RH WIND       PRES   REMARKS
LK YELLOWSTONE   N/A     40  37  89 CALM      30.37F
W YELLOWSTONE  NOT AVBL

$$
WYZ002>013-054>058-071-098>099-280900-
NORTHERN WYOMING

CITY           SKY/WX    TMP DP  RH WIND       PRES   REMARKS
JACKSON        CLEAR     45  43  93 N6        30.29R
CODY           CLEAR     57  48  72 SW6       30.14S
GREYBULL       CLEAR     58  51  78 SE6       30.09R
WORLAND        PTCLDY    56  53  90 SE6       30.10S
SHERIDAN       PTCLDY    53  48  83 CALM      30.06S
BUFFALO        PTCLDY    60  45  57 SW8       30.12S
GILLETTE       CLOUDY    60  54  80 W9        30.06F
HULETT         FAIR      59  55  88 MISG      30.08
NEWCASTLE      FAIR      59  57  94 N7        30.06

$$
WYZ014>020-022>026-101>103-280900-
CENTRAL WYOMING

CITY           SKY/WX    TMP DP  RH WIND       PRES   REMARKS
BIG PINEY      CLEAR     43  41  93 CALM      30.31S
PINEDALE       MOSUNNY   41  41 100 N3        30.32S FOG
DUBOIS         FAIR      46  37  71 NW9       30.29S
LANDER         CLOUDY    56  48  74 SW3       30.18S
RIVERTON       MOCLDY    54  51  90 W7        30.19S
CASPER         CLOUDY    56  53  90 W6        30.16F
DOUGLAS        CLOUDY    58  56  93 N6        30.12F

$$
WYZ021-027>030-104>119-280900-
SOUTHERN WYOMING

CITY           SKY/WX    TMP DP  RH WIND       PRES   REMARKS
EVANSTON       PTCLDY    47  45  93 SW9       30.35S
KEMMERER       MOSUNNY   50  45  81 W8        30.34S
FORT BRIDGER   FAIR      53  47  81 W15       30.35S
ROCK SPRINGS   MOCLDY    50  46  86 W10       30.28F
DIXON          RAIN      52  50  94 W5        30.31S
RAWLINS        CLOUDY    52  50  93 W9        30.26F
SARATOGA       CLOUDY    50  46  87 W3        30.28F
LARAMIE        CLOUDY    46  43  89 E3        30.24F
CHEYENNE       CLOUDY    52  46  80 W10       30.17F
TORRINGTON     MOCLDY    59  58  96 W5        30.05F
PINE BLUFFS    FAIR      54  50  87 CALM      30.13F

$$



USA.gov is the U.S. government's official web portal to all federal, state and local government web resources and services.